This is the latest recevied weather packets stored in our database for station/object KC0SIQ-13. If no packets are shown the sender has not sent any weather packets the latest 10 day(s).
| Time | Temp. | Humidity | Pressure | Rain* | Wind** | Luminosity | Snow |
|---|---|---|---|---|---|---|---|
| 1777971202 | 3.89° C | 96% | 1011.3 hPa | 3.05 mm | - | 0 W/m² | - |
| 1777970899 | 4.44° C | 96% | 1011.2 hPa | 3.05 mm | - | 0 W/m² | - |
| 1777970598 | 4.44° C | 96% | 1011.1 hPa | 3.05 mm | - | 0 W/m² | - |
| 1777970294 | 4.44° C | 96% | 1011.3 hPa | 4.32 mm | - | 0 W/m² | - |
| 1777969992 | 4.44° C | 96% | 1011.2 hPa | 3.05 mm | - | 0 W/m² | - |
| 1777969688 | 5° C | 95% | 1011 hPa | 1.78 mm | - | 0 W/m² | - |
| 1777969385 | 5° C | 95% | 1011 hPa | 1.27 mm | - | 0 W/m² | - |
| 1777969081 | 5° C | 95% | 1010.9 hPa | 1.27 mm | - | 0 W/m² | - |
| 1777968778 | 5° C | 95% | 1011.1 hPa | 1.78 mm | - | 0 W/m² | - |
| 1777968474 | 5.56° C | 95% | 1011.1 hPa | 1.78 mm | - | 0 W/m² | - |
| 1777968170 | 5.56° C | 95% | 1011 hPa | 1.78 mm | - | 0 W/m² | - |
| 1777967866 | 5.56° C | 95% | 1010.7 hPa | 1.78 mm | - | 0 W/m² | - |
| 1777967564 | 5.56° C | 95% | 1010.9 hPa | 0 mm | - | 0 W/m² | - |
| 1777967261 | 5.56° C | 95% | 1011.1 hPa | 0 mm | - | 0 W/m² | - |
| 1777966958 | 5.56° C | 95% | 1011 hPa | 1.27 mm | - | 0 W/m² | - |
| 1777966655 | 6.11° C | 94% | 1011.2 hPa | 1.27 mm | - | 0 W/m² | - |
| 1777966353 | 6.11° C | 94% | 1011.2 hPa | 1.78 mm | - | 0 W/m² | - |
| 1777966049 | 6.11° C | 94% | 1011.1 hPa | 3.05 mm | - | 0 W/m² | - |
| 1777965745 | 6.11° C | 93% | 1011 hPa | 3.05 mm | - | 0 W/m² | - |
| 1777965441 | 6.11° C | 92% | 1011.2 hPa | 1.78 mm | - | 0 W/m² | - |
| 1777965138 | 6.11° C | 92% | 1011.2 hPa | 1.27 mm | - | 0 W/m² | - |
| 1777964836 | 6.11° C | 91% | 1011.3 hPa | 1.27 mm | - | 0 W/m² | - |
| 1777964532 | 6.11° C | 91% | 1011.2 hPa | 0 mm | - | 0 W/m² | - |
| 1777964228 | 6.11° C | 90% | 1010.7 hPa | 1.78 mm | - | 0 W/m² | - |
| 1777963925 | 6.67° C | 89% | 1011.2 hPa | 0 mm | - | 0 W/m² | - |
* Rain latest hour (hover to see other rain measurements)
** Current wind speed in m/s (hover to see current wind gust speed)